STARLINK-36663, 67919

Orbit data source: Space-Track

STARLINK-36663, 67919 is a payload satellite owned by SpaceX/Seattle (US) in LEO that was launched on Sun, 22 Feb 2026 UTC via an FALCON 9 launch vehicle from the Air Force Eastern Test Range (AFETR). Payload-class satellites include a variety of spacecraft equipped with specific instruments for various scientific and technological missions. These include communications satellites like Starlink; space stations such as the ISS; scientific satellites like the Hubble; Earth observation satellites from companies like Planet Labs, Umbra, and HawkEye 360; GPS; miniature CubeSats for education and research; and military/defense satellites.

Loading next visibility...
Identifier
67919, 2026-036R
Orbit
LEO
Country
Flag of USUS
Related business
Manufacturer
SpaceX/Seattle
Mission
Operational spacecraft
Bus & Motor
STARLINK V2MO, Unknown motor
Mass
575 kg wet, ~530 kg dry
Launch date (UTC)
2026-02-22 (2 months ago)
Launch vehicle
FALCON 9
Launch site
Air Force Eastern Test Range (AFETR)
Object type
Payload
Rocket body
Debris
Shape & HBR
Unknown shape, 17.7 m
Radar Cross Section
RCS unknown

Expand to show TLE details & history
Last TLE update: 4 hours ago

TLE from 4 hours ago
0 STARLINK-36663
1 67919U 26036R   26104.51568624  .00008902  00000-0  32423-3 0  9995
2 67919  43.0005  42.7105 0000868 273.0310  87.0442 15.28423471  9206
Epoch: 2026-04-14T12:22Z
TLE epoch observation values (Epoch: 2026-04-14T12:22:35.291Z)
Latitude
-0.00005°
Longitude
14.37258°
Altitude
480.269 km
Speed
7.627 km/s
True Right ascension
02h 50m 50s
True Declination
0° 00' 00"
Sunlit
Object was in daylight at epoch
Visualization orbit readout
Latitude
Unknown
Longitude
Unknown
Altitude
Unknown
Speed
Unknown
Apparent Right ascension
Unknown
Apparent Declination
Unknown
Sunlit
N/A
Visualization observer readout
Local Sidereal Time
23:14:05
Azimuth
Unknown
Elevation
Unknown
Doppler factor
Unknown
Orbital elements
Apogee altitude
483.066 km
Perigee altitude
481.875 km
Semi-major axis
6,860.607 km
Eccentricity
0.00009
Inclination
43.0005°
RAAN
42.7105°
Arg. of periapsis
273.031°
True anomaly
87.05413°
Mean anomaly
87.0442°
Eccentric anomaly
87.04917°
Mean motion
3.81944 °/min
Orbital period
94.25 mins
BSTAR
0.00032423
Loading maneuver chart data...
Computing Atmospheric mass density...
Loading historical data...
Loading historical data...
Loading historical data...
Loading historical data...
Loading historical data...
Loading historical data...
Loading historical data...

Documentation

Showing up to 5 results
|